TimeCST,TemperatureF,Dew PointF,Humidity,Sea Level PressureIn,VisibilityMPH,Wind Direction,Wind SpeedMPH,Gust SpeedMPH,PrecipitationIn,Events,Conditions,WindDirDegrees,DateUTC
12:53 AM,46.9,33.1,59,29.83,10.0,East,6.9,-,N/A,,Overcast,90,2013-02-25 06:53:00
1:53 AM,46.9,32.0,56,29.82,10.0,East,8.1,-,N/A,,Overcast,100,2013-02-25 07:53:00
2:53 AM,46.0,32.0,58,29.80,10.0,ENE,10.4,-,N/A,,Overcast,70,2013-02-25 08:53:00
3:53 AM,46.0,32.0,58,29.79,10.0,NE,8.1,-,N/A,,Overcast,50,2013-02-25 09:53:00
4:53 AM,44.1,32.0,63,29.75,10.0,NE,8.1,-,N/A,,Mostly Cloudy,40,2013-02-25 10:53:00
5:53 AM,43.0,30.9,62,29.70,10.0,NE,10.4,-,N/A,,Overcast,40,2013-02-25 11:53:00
6:53 AM,43.0,30.9,62,29.71,10.0,NE,8.1,-,N/A,,Overcast,40,2013-02-25 12:53:00
7:32 AM,41.0,33.8,76,29.68,10.0,North,6.9,-,0.03,Rain-Thunderstorm,Light Rain,10,2013-02-25 13:32:00
7:53 AM,41.0,35.1,79,29.76,5.0,North,-9999.0,-,0.06,Rain-Thunderstorm,Light Rain,0,2013-02-25 13:53:00
8:12 AM,39.2,35.6,87,29.73,3.0,North,-9999.0,-,0.08,Rain,Rain,0,2013-02-25 14:12:00
8:43 AM,39.2,35.6,87,29.71,5.0,North,-9999.0,-,0.16,Rain-Thunderstorm,Rain,0,2013-02-25 14:43:00
8:53 AM,39.0,35.1,86,29.71,3.0,North,-9999.0,-,0.19,Rain,Rain,0,2013-02-25 14:53:00
9:15 AM,39.2,35.6,87,29.68,2.5,North,-9999.0,-,0.05,Rain,Heavy Rain,0,2013-02-25 15:15:00
9:29 AM,39.2,35.6,87,29.65,2.5,North,-9999.0,-,0.08,Rain,Rain,0,2013-02-25 15:29:00
9:44 AM,39.2,35.6,87,29.66,4.0,North,15.0,26.5,0.10,Rain,Light Rain,360,2013-02-25 15:44:00
9:53 AM,39.0,35.1,86,29.73,3.0,NNW,6.9,23.0,0.12,Rain,Rain,340,2013-02-25 15:53:00
10:06 AM,37.4,35.6,93,29.71,2.0,NNW,8.1,19.6,0.08,Rain,Heavy Rain,340,2013-02-25 16:06:00
10:13 AM,37.4,35.6,93,29.72,1.5,Variable,6.9,-,0.13,Rain,Heavy Rain,0,2013-02-25 16:13:00
10:35 AM,37.4,35.6,93,29.66,2.0,North,-9999.0,-,0.23,Rain,Rain,0,2013-02-25 16:35:00
10:45 AM,37.4,35.6,93,29.66,3.0,North,-9999.0,-,0.24,Rain,Rain,0,2013-02-25 16:45:00
10:53 AM,37.9,35.1,89,29.67,2.0,North,-9999.0,-,0.27,Rain,Rain,0,2013-02-25 16:53:00
11:08 AM,37.4,35.6,93,29.63,3.0,North,-9999.0,-,0.05,Rain,Rain,0,2013-02-25 17:08:00
11:40 AM,39.2,35.6,87,29.64,2.5,NNE,19.6,25.3,0.11,Rain,Rain,30,2013-02-25 17:40:00
11:53 AM,39.0,36.0,89,29.64,3.0,NNE,19.6,27.6,0.13,Rain,Light Rain,30,2013-02-25 17:53:00
12:53 PM,39.9,36.0,86,29.60,5.0,NE,17.3,24.2,0.03,Rain,Light Rain,50,2013-02-25 18:53:00
1:53 PM,39.9,36.0,86,29.55,8.0,NE,20.7,28.8,0.01,Rain,Light Rain,40,2013-02-25 19:53:00
2:53 PM,39.9,35.1,83,29.52,10.0,NE,20.7,32.2,0.01,,Overcast,50,2013-02-25 20:53:00
3:15 PM,39.2,35.6,87,29.49,10.0,NE,20.7,32.2,N/A,,Overcast,40,2013-02-25 21:15:00
3:36 PM,39.2,35.6,87,29.48,10.0,NE,21.9,32.2,N/A,,Overcast,40,2013-02-25 21:36:00
3:53 PM,39.9,35.1,83,29.51,10.0,NNE,18.4,33.4,N/A,,Overcast,20,2013-02-25 21:53:00
4:14 PM,39.2,33.8,81,29.50,10.0,NE,15.0,25.3,N/A,,Overcast,50,2013-02-25 22:14:00
4:53 PM,39.9,35.1,83,29.51,4.0,NNE,12.7,23.0,0.02,Rain,Light Rain,30,2013-02-25 22:53:00
5:27 PM,37.4,33.8,87,29.49,2.0,NNE,15.0,21.9,0.05,Rain,Rain,30,2013-02-25 23:27:00
5:34 PM,37.4,33.8,87,29.49,1.5,NNE,12.7,21.9,0.06,Rain,Rain,30,2013-02-25 23:34:00
5:50 PM,37.4,35.6,93,29.50,1.5,NE,16.1,23.0,0.08,Rain,Light Rain,40,2013-02-25 23:50:00
5:53 PM,37.9,35.1,89,29.52,1.8,NE,15.0,23.0,0.08,Rain,Light Rain,40,2013-02-25 23:53:00
6:08 PM,39.2,35.6,87,29.51,2.5,NNE,18.4,26.5,0.01,Rain,Light Rain,30,2013-02-26 00:08:00
6:16 PM,37.4,35.6,93,29.51,3.0,NNE,13.8,26.5,0.03,Rain,Rain,30,2013-02-26 00:16:00
6:53 PM,37.9,35.1,89,29.55,4.0,NNE,11.5,-,0.11,Rain,Rain,20,2013-02-26 00:53:00
7:53 PM,35.1,32.0,89,29.55,4.0,NNE,11.5,-,0.18,Snow,Light Snow,20,2013-02-26 01:53:00
8:10 PM,33.8,30.2,87,29.52,2.0,North,9.2,-,0.05,Snow,Light Snow,10,2013-02-26 02:10:00
8:20 PM,33.8,30.2,87,29.52,1.8,North,10.4,-,0.06,Snow,Light Snow,10,2013-02-26 02:20:00
8:30 PM,33.8,30.2,87,29.51,2.0,North,10.4,16.1,0.07,Snow,Light Snow,10,2013-02-26 02:30:00
8:43 PM,33.8,30.2,87,29.51,3.0,North,8.1,-,0.08,Snow,Light Snow,360,2013-02-26 02:43:00
8:53 PM,33.1,30.9,92,29.53,2.0,North,10.4,16.1,0.10,Snow,Light Snow,360,2013-02-26 02:53:00
9:06 PM,33.8,30.2,87,29.50,1.8,North,10.4,17.3,0.02,Snow,Light Snow,360,2013-02-26 03:06:00
9:13 PM,33.8,30.2,87,29.50,2.0,North,11.5,18.4,0.03,Snow,Light Snow,360,2013-02-26 03:13:00
9:23 PM,33.8,30.2,87,29.50,2.5,North,10.4,-,0.04,Snow,Light Snow,360,2013-02-26 03:23:00
9:34 PM,33.8,30.2,87,29.50,3.0,North,10.4,-,0.05,Snow,Light Snow,360,2013-02-26 03:34:00
9:50 PM,33.8,30.2,87,29.51,2.0,North,10.4,19.6,0.06,Snow,Light Snow,10,2013-02-26 03:50:00
9:53 PM,34.0,30.9,89,29.53,2.0,North,15.0,21.9,0.07,Snow,Light Snow,350,2013-02-26 03:53:00
9:59 PM,33.8,30.2,87,29.51,1.8,North,9.2,21.9,0.01,Snow,Light Snow,360,2013-02-26 03:59:00
10:06 PM,33.8,30.2,87,29.50,2.5,North,11.5,18.4,0.01,Snow,Light Snow,350,2013-02-26 04:06:00
10:18 PM,33.8,30.2,87,29.50,3.0,North,11.5,21.9,0.02,Snow,Light Snow,360,2013-02-26 04:18:00
10:53 PM,34.0,30.9,89,29.52,4.0,North,13.8,-,0.03,Snow,Light Snow,360,2013-02-26 04:53:00
11:53 PM,34.0,30.9,89,29.52,6.0,North,13.8,23.0,0.02,Snow,Light Snow,360,2013-02-26 05:53:00